Location: Acts of The Apostolic Faith Church
(32.7217°N, 96.6947°W)
Time: 15:36:27
(UTC+00:00)

Daily predictions for brighter satellites

Satellite Brightness Start Highest point End
(mag) Time Altitude Azimuth Time Altitude Azimuth Time Altitude Azimuth
Meteor PRIRODA 4.1 12:03:57 10° NNE 12:07:32 62° E 12:11:08 10° S
CZ-4B R/B 3.4 12:04:53 10° NNE 12:08:23 54° E 12:11:59 10° S
H-2A R/B 4.2 12:05:13 10° SE 12:08:41 25° ENE 12:12:14 10° NNE
Meteor 2-19 Rocket 4.3 12:05:12 10° SSW 12:11:13 71° W 12:17:16 10° N
Cosmos 1812 3.9 12:12:01 21° WNW 12:12:33 22° W 12:15:32 10° SW
Cosmos 1151 Rocket 3.8 12:10:05 16° NW 12:12:55 30° W 12:16:42 10° SSW
Cosmos 1340 Rocket 2.7 12:09:23 10° S 12:13:18 88° ESE 12:17:18 10° N
SL-27 R/B 3.2 12:10:04 10° N 12:13:33 52° ENE 12:16:57 10° SSE
NOAA 11 4.1 12:10:24 10° N 12:15:52 76° WNW 12:21:21 10° SSW
Cosmos 783 Rocket 4.5 12:14:19 10° NNW 12:19:31 90° ENE 12:24:43 10° SSE
OAO 2 Rocket 3.9 12:15:12 10° SW 12:20:18 58° SSE 12:25:18 10° E
CZ-2C R/B 3.0 12:15:25 10° NNE 12:20:26 89° W 12:25:42 10° SSW
SL-8 R/B 4.5 12:16:55 12° NW 12:21:06 46° NE 12:25:41 10° ESE
ATLAS 5 CENTAUR R/B 2.2 12:20:01 10° WSW 12:23:07 26° NW 12:26:31 10° N
Cosmos 1777 Rocket 4.3 12:18:46 10° SW 12:23:43 45° WNW 12:28:44 10° N
H-2A R/B 4.5 12:22:55 10° NE 12:26:56 25° E 12:30:59 10° SSE
CZ-4B R/B 4.1 12:30:56 10° ESE 12:33:19 19° ENE 12:35:41 10° NNE
Cosmos 773 Rocket 3.9 12:28:12 10° NNW 12:33:24 75° WSW 12:38:31 10° S
BREEZE-M DEB 4.1 12:31:18 12° W 12:33:51 32° NNW 12:40:32 10° NE
USA 32 4.5 12:29:42 10° N 12:34:56 68° E 12:40:08 10° S
Meteor 1-27 Rocket 3.8 12:29:32 10° N 12:35:14 78° W 12:41:02 10° S
Cosmos 1939 Rocket 2.7 12:37:31 10° N 12:41:25 77° WNW 12:45:15 10° SSW
Alouette 2 Rocket 3.6 12:38:33 10° N 12:42:05 67° E 12:46:02 10° SSE
DMSP B5D2-2 4.1 12:37:38 10° S 12:42:51 76° WSW 12:48:04 10° NNW
COSMO-SKYMED 1 3.9 12:40:04 10° SW 12:43:22 21° W 12:46:41 10° NW
SL-4 R/B 1.9 12:41:51 10° WSW 12:45:12 47° NW 12:48:45 10° NE
NOAA 6 4.1 12:44:41 10° NNE 12:49:49 87° E 12:54:57 10° SSW
Cosmos 2026 Rocket 4.1 12:46:15 10° S 12:52:36 80° W 12:58:55 10° N
Cosmos 1634 Rocket 4.1 23:36:56 10° S 23:43:14 77° E 23:49:33 10° N
Cosmos 2084 3.8 23:39:12 10° NNW 23:43:36 79° WSW 23:48:09 10° SSE
Cosmos 1500 Rocket 4.2 23:41:23 10° NNW 23:45:44 63° W 23:50:02 10° S
Cosmos 1937 Rocket 3.6 23:41:20 10° N 23:46:37 63° ENE 23:51:50 10° SSE
USA 276 2.3 23:44:26 10° NW 23:47:32 75° SW 23:50:38 10° SE
Cosmos 1900 4.3 23:43:36 10° SSW 23:48:26 79° ESE 23:53:19 10° NNE
Sich 1 3.1 23:45:37 10° N 23:49:52 57° E 23:54:07 10° SSE
USA 267 4.4 23:44:14 10° NNE 23:50:08 38° NW 23:56:02 10° WSW
Cosmos 372 Rocket 4.4 23:45:33 10° N 23:50:30 41° ENE 23:55:26 10° SE
DEBRIS 2.9 23:50:29 10° SSW 23:52:17 28° SE 23:55:00 10° ENE
Cosmos 2026 Rocket 3.9 23:46:43 10° N 23:52:48 69° E 23:58:48 10° SSE
APEX 4.2 23:50:42 10° S 23:54:34 31° ESE 23:57:47 10° NE
